Time,TemperatureF,DewpointF,PressureIn,WindDirection,WindDirectionDegrees,WindSpeedMPH,WindSpeedGustMPH,Humidity,HourlyPrecipIn,Conditions,Clouds,dailyrainin,SoftwareType,DateUTC
2013-06-26 00:05:00,85.3,66.0,29.86,SW,216,4.0,7.0,53,0.00,,,0.00,weatherlink.com 1.10,2013-06-26 05:05:00,
2013-06-26 00:20:00,84.8,66.0,29.86,South,176,0.0,11.0,54,0.00,,,0.00,weatherlink.com 1.10,2013-06-26 05:20:00,
2013-06-26 00:35:00,84.5,67.0,29.86,SSW,197,1.0,11.0,56,0.00,,,0.00,weatherlink.com 1.10,2013-06-26 05:35:00,
2013-06-26 00:50:00,83.8,68.0,29.86,ESE,118,7.0,7.0,59,0.00,,,0.00,weatherlink.com 1.10,2013-06-26 05:50:00,
2013-06-26 01:05:00,83.2,68.0,29.86,SE,145,4.0,7.0,61,0.00,,,0.00,weatherlink.com 1.10,2013-06-26 06:05:00,
2013-06-26 01:20:00,82.7,69.0,29.86,SE,140,3.0,9.0,64,0.00,,,0.00,weatherlink.com 1.10,2013-06-26 06:20:00,
2013-06-26 01:35:00,82.0,70.0,29.87,South,187,2.0,7.0,66,0.00,,,0.00,weatherlink.com 1.10,2013-06-26 06:35:00,
2013-06-26 01:50:00,81.4,70.0,29.87,SE,125,1.0,7.0,68,0.00,,,0.00,weatherlink.com 1.10,2013-06-26 06:50:00,
2013-06-26 02:05:00,81.0,70.0,29.87,East,96,2.0,7.0,70,0.00,,,0.00,weatherlink.com 1.10,2013-06-26 07:05:00,
2013-06-26 02:20:00,80.5,71.0,29.86,South,180,2.0,6.0,72,0.00,,,0.00,weatherlink.com 1.10,2013-06-26 07:20:00,
2013-06-26 02:35:00,80.1,71.0,29.86,SSE,158,4.0,8.0,73,0.00,,,0.00,weatherlink.com 1.10,2013-06-26 07:35:00,
2013-06-26 02:50:00,79.6,71.0,29.86,SE,141,0.0,6.0,74,0.00,,,0.00,weatherlink.com 1.10,2013-06-26 07:50:00,
2013-06-26 03:05:00,79.2,71.0,29.85,East,84,4.0,10.0,76,0.00,,,0.00,weatherlink.com 1.10,2013-06-26 08:05:00,
2013-06-26 03:20:00,78.8,71.0,29.86,SSW,205,1.0,7.0,77,0.00,,,0.00,weatherlink.com 1.10,2013-06-26 08:20:00,
2013-06-26 03:35:00,78.4,71.0,29.87,SSE,155,1.0,5.0,79,0.00,,,0.00,weatherlink.com 1.10,2013-06-26 08:35:00,
2013-06-26 03:50:00,78.2,72.0,29.86,SE,127,4.0,9.0,80,0.00,,,0.00,weatherlink.com 1.10,2013-06-26 08:50:00,
2013-06-26 04:05:00,77.8,72.0,29.86,SE,127,3.0,7.0,81,0.00,,,0.00,weatherlink.com 1.10,2013-06-26 09:05:00,
2013-06-26 04:21:00,77.6,72.0,29.86,ESE,106,1.0,8.0,82,0.00,,,0.00,weatherlink.com 1.10,2013-06-26 09:21:00,
2013-06-26 04:36:00,77.4,72.0,29.87,SE,131,2.0,10.0,84,0.00,,,0.00,weatherlink.com 1.10,2013-06-26 09:36:00,
2013-06-26 04:51:00,77.3,73.0,29.88,WSW,255,2.0,10.0,85,0.00,,,0.00,weatherlink.com 1.10,2013-06-26 09:51:00,
2013-06-26 05:06:00,77.0,72.0,29.88,ESE,105,3.0,7.0,85,0.00,,,0.00,weatherlink.com 1.10,2013-06-26 10:06:00,
2013-06-26 05:21:00,76.8,72.0,29.88,East,96,4.0,6.0,86,0.00,,,0.00,weatherlink.com 1.10,2013-06-26 10:21:00,
2013-06-26 05:36:00,76.6,72.0,29.88,SSE,167,2.0,7.0,86,0.00,,,0.00,weatherlink.com 1.10,2013-06-26 10:36:00,
2013-06-26 05:51:00,76.4,72.0,29.89,SE,145,1.0,6.0,87,0.00,,,0.00,weatherlink.com 1.10,2013-06-26 10:51:00,
2013-06-26 06:06:00,76.3,72.0,29.89,ESE,115,2.0,6.0,87,0.00,,,0.00,weatherlink.com 1.10,2013-06-26 11:06:00,
2013-06-26 06:21:00,76.5,72.0,29.90,East,95,4.0,8.0,87,0.00,,,0.00,weatherlink.com 1.10,2013-06-26 11:21:00,
2013-06-26 06:36:00,77.1,73.0,29.91,ESE,109,2.0,9.0,86,0.00,,,0.00,weatherlink.com 1.10,2013-06-26 11:36:00,
2013-06-26 06:51:00,77.5,73.0,29.91,East,89,2.0,10.0,85,0.00,,,0.00,weatherlink.com 1.10,2013-06-26 11:51:00,
2013-06-26 07:06:00,77.8,73.0,29.91,NW,323,4.0,12.0,84,0.00,,,0.00,weatherlink.com 1.10,2013-06-26 12:06:00,
2013-06-26 07:21:00,78.1,73.0,29.93,SW,228,1.0,10.0,83,0.00,,,0.00,weatherlink.com 1.10,2013-06-26 12:21:00,
2013-06-26 07:36:00,78.5,73.0,29.93,SE,135,3.0,10.0,82,0.00,,,0.00,weatherlink.com 1.10,2013-06-26 12:36:00,
2013-06-26 07:51:00,79.2,73.0,29.92,SSW,209,3.0,10.0,80,0.00,,,0.00,weatherlink.com 1.10,2013-06-26 12:51:00,
2013-06-26 08:06:00,79.9,73.0,29.93,ESE,105,3.0,11.0,79,0.00,,,0.00,weatherlink.com 1.10,2013-06-26 13:06:00,
2013-06-26 08:21:00,81.0,73.0,29.93,SSE,155,3.0,8.0,77,0.00,,,0.00,weatherlink.com 1.10,2013-06-26 13:21:00,
2013-06-26 08:36:00,82.2,73.0,29.93,SW,224,4.0,10.0,74,0.00,,,0.00,weatherlink.com 1.10,2013-06-26 13:36:00,
2013-06-26 08:51:00,82.3,73.0,29.94,East,84,4.0,12.0,73,0.00,,,0.00,weatherlink.com 1.10,2013-06-26 13:51:00,
2013-06-26 09:06:00,82.5,73.0,29.95,West,271,3.0,9.0,73,0.00,,,0.00,weatherlink.com 1.10,2013-06-26 14:06:00,
2013-06-26 09:21:00,83.8,73.0,29.95,ESE,103,7.0,8.0,71,0.00,,,0.00,weatherlink.com 1.10,2013-06-26 14:21:00,
2013-06-26 09:36:00,85.0,73.0,29.95,East,86,3.0,10.0,68,0.00,,,0.00,weatherlink.com 1.10,2013-06-26 14:36:00,
2013-06-26 09:51:00,86.3,73.0,29.96,SE,124,6.0,11.0,65,0.00,,,0.00,weatherlink.com 1.10,2013-06-26 14:51:00,
2013-06-26 10:06:00,87.4,74.0,29.95,South,177,1.0,10.0,64,0.00,,,0.00,weatherlink.com 1.10,2013-06-26 15:06:00,
2013-06-26 10:21:00,87.5,74.0,29.95,WNW,289,2.0,12.0,64,0.00,,,0.00,weatherlink.com 1.10,2013-06-26 15:21:00,
2013-06-26 10:37:00,88.1,73.0,29.95,SW,228,4.0,10.0,61,0.00,,,0.00,weatherlink.com 1.10,2013-06-26 15:37:00,
2013-06-26 10:52:00,88.3,73.0,29.95,SE,124,5.0,13.0,61,0.00,,,0.00,weatherlink.com 1.10,2013-06-26 15:52:00,
2013-06-26 11:07:00,89.3,74.0,29.95,SSE,159,4.0,14.0,60,0.00,,,0.00,weatherlink.com 1.10,2013-06-26 16:07:00,
2013-06-26 11:22:00,89.4,73.0,29.94,SSW,198,5.0,13.0,58,0.00,,,0.00,weatherlink.com 1.10,2013-06-26 16:22:00,
2013-06-26 11:37:00,90.9,74.0,29.95,SW,214,8.0,12.0,57,0.00,,,0.00,weatherlink.com 1.10,2013-06-26 16:37:00,
2013-06-26 11:52:00,91.6,73.0,29.95,SW,229,3.0,11.0,55,0.00,,,0.00,weatherlink.com 1.10,2013-06-26 16:52:00,
2013-06-26 12:07:00,92.4,74.0,29.94,WSW,248,2.0,10.0,55,0.00,,,0.00,weatherlink.com 1.10,2013-06-26 17:07:00,
2013-06-26 12:22:00,93.7,74.0,29.94,SW,217,2.0,9.0,53,0.00,,,0.00,weatherlink.com 1.10,2013-06-26 17:22:00,
2013-06-26 12:37:00,94.3,73.0,29.93,SSE,148,2.0,9.0,51,0.00,,,0.00,weatherlink.com 1.10,2013-06-26 17:37:00,
2013-06-26 12:52:00,94.7,74.0,29.93,East,96,1.0,11.0,51,0.00,,,0.00,weatherlink.com 1.10,2013-06-26 17:52:00,
2013-06-26 13:07:00,95.0,74.0,29.92,ESE,108,10.0,12.0,50,0.00,,,0.00,weatherlink.com 1.10,2013-06-26 18:07:00,
2013-06-26 13:22:00,96.2,75.0,29.92,SE,145,2.0,10.0,50,0.00,,,0.00,weatherlink.com 1.10,2013-06-26 18:22:00,
2013-06-26 13:37:00,96.8,73.0,29.91,ESE,108,3.0,10.0,47,0.00,,,0.00,weatherlink.com 1.10,2013-06-26 18:37:00,
2013-06-26 13:52:00,97.1,74.0,29.91,SSW,200,0.0,9.0,48,0.00,,,0.00,weatherlink.com 1.10,2013-06-26 18:52:00,
2013-06-26 14:07:00,97.7,74.0,29.90,ESE,102,7.0,9.0,47,0.00,,,0.00,weatherlink.com 1.10,2013-06-26 19:07:00,
2013-06-26 14:22:00,97.7,73.0,29.89,SSE,166,5.0,11.0,45,0.00,,,0.00,weatherlink.com 1.10,2013-06-26 19:22:00,
2013-06-26 14:37:00,98.2,74.0,29.89,ENE,73,3.0,12.0,46,0.00,,,0.00,weatherlink.com 1.10,2013-06-26 19:37:00,
2013-06-26 14:52:00,99.1,74.0,29.88,ESE,113,2.0,7.0,45,0.00,,,0.00,weatherlink.com 1.10,2013-06-26 19:52:00,
2013-06-26 15:07:00,100.0,73.0,29.87,South,191,2.0,16.0,42,0.00,,,0.00,weatherlink.com 1.10,2013-06-26 20:07:00,
2013-06-26 15:22:00,100.3,74.0,29.86,NE,47,4.0,7.0,43,0.00,,,0.00,weatherlink.com 1.10,2013-06-26 20:22:00,
2013-06-26 15:37:00,100.4,73.0,29.86,ESE,113,3.0,8.0,42,0.00,,,0.00,weatherlink.com 1.10,2013-06-26 20:37:00,
2013-06-26 15:52:00,100.3,73.0,29.86,SE,145,3.0,12.0,42,0.00,,,0.00,weatherlink.com 1.10,2013-06-26 20:52:00,
2013-06-26 16:07:00,100.4,73.0,29.85,ESE,115,5.0,11.0,42,0.00,,,0.00,weatherlink.com 1.10,2013-06-26 21:07:00,
2013-06-26 16:22:00,100.9,72.0,29.85,ESE,121,3.0,7.0,39,0.00,,,0.00,weatherlink.com 1.10,2013-06-26 21:22:00,
2013-06-26 16:37:00,101.1,73.0,29.85,SW,218,2.0,10.0,41,0.00,,,0.00,weatherlink.com 1.10,2013-06-26 21:37:00,
2013-06-26 16:52:00,101.6,72.0,29.85,SSW,205,6.0,8.0,39,0.00,,,0.00,weatherlink.com 1.10,2013-06-26 21:52:00,
2013-06-26 17:07:00,101.1,73.0,29.85,South,174,1.0,8.0,40,0.00,,,0.00,weatherlink.com 1.10,2013-06-26 22:07:00,
2013-06-26 17:22:00,101.1,73.0,29.84,ESE,103,2.0,8.0,40,0.00,,,0.00,weatherlink.com 1.10,2013-06-26 22:22:00,
2013-06-26 17:37:00,100.9,72.0,29.84,East,90,3.0,8.0,40,0.00,,,0.00,weatherlink.com 1.10,2013-06-26 22:37:00,
2013-06-26 17:52:00,100.5,71.0,29.84,SE,131,5.0,10.0,39,0.00,,,0.00,weatherlink.com 1.10,2013-06-26 22:52:00,
2013-06-26 18:07:00,100.2,71.0,29.84,South,181,2.0,10.0,39,0.00,,,0.00,weatherlink.com 1.10,2013-06-26 23:07:00,
2013-06-26 18:22:00,100.0,72.0,29.83,East,87,4.0,4.0,40,0.00,,,0.00,weatherlink.com 1.10,2013-06-26 23:22:00,
2013-06-26 18:37:00,99.3,70.0,29.83,SSE,152,2.0,7.0,39,0.00,,,0.00,weatherlink.com 1.10,2013-06-26 23:37:00,
2013-06-26 18:52:00,99.3,70.0,29.83,SSE,162,2.0,6.0,39,0.00,,,0.00,weatherlink.com 1.10,2013-06-26 23:52:00,
2013-06-26 19:07:00,98.4,70.0,29.83,ESE,116,0.0,5.0,40,0.00,,,0.00,weatherlink.com 1.10,2013-06-27 00:07:00,
2013-06-26 19:22:00,97.3,70.0,29.83,South,174,3.0,7.0,41,0.00,,,0.00,weatherlink.com 1.10,2013-06-27 00:22:00,
2013-06-26 19:37:00,96.4,70.0,29.83,SE,136,0.0,8.0,42,0.00,,,0.00,weatherlink.com 1.10,2013-06-27 00:37:00,
2013-06-26 19:52:00,95.6,70.0,29.83,SW,230,2.0,7.0,44,0.00,,,0.00,weatherlink.com 1.10,2013-06-27 00:52:00,
2013-06-26 20:07:00,94.7,70.0,29.83,SSE,158,1.0,6.0,45,0.00,,,0.00,weatherlink.com 1.10,2013-06-27 01:07:00,
2013-06-26 20:23:00,93.7,70.0,29.83,SE,135,0.0,4.0,46,0.00,,,0.00,weatherlink.com 1.10,2013-06-27 01:23:00,
2013-06-26 20:38:00,92.8,69.0,29.83,NNE,33,1.0,3.0,46,0.00,,,0.00,weatherlink.com 1.10,2013-06-27 01:38:00,
2013-06-26 20:53:00,92.0,69.0,29.83,ESE,116,1.0,4.0,47,0.00,,,0.00,weatherlink.com 1.10,2013-06-27 01:53:00,
2013-06-26 21:09:00,91.3,68.0,29.84,ESE,121,2.0,3.0,47,0.00,,,0.00,weatherlink.com 1.10,2013-06-27 02:09:00,
2013-06-26 21:23:00,90.7,68.0,29.84,SE,127,1.0,3.0,48,0.00,,,0.00,weatherlink.com 1.10,2013-06-27 02:23:00,
2013-06-26 21:38:00,89.9,68.0,29.84,SE,124,2.0,4.0,49,0.00,,,0.00,weatherlink.com 1.10,2013-06-27 02:38:00,
2013-06-26 21:53:00,89.8,69.0,29.84,ESE,110,2.0,6.0,50,0.00,,,0.00,weatherlink.com 1.10,2013-06-27 02:53:00,
2013-06-26 22:08:00,89.4,69.0,29.85,ESE,103,0.0,5.0,51,0.00,,,0.00,weatherlink.com 1.10,2013-06-27 03:08:00,
2013-06-26 22:23:00,89.0,69.0,29.86,SE,124,3.0,7.0,52,0.00,,,0.00,weatherlink.com 1.10,2013-06-27 03:23:00,
2013-06-26 22:38:00,88.6,69.0,29.86,SE,138,1.0,6.0,53,0.00,,,0.00,weatherlink.com 1.10,2013-06-27 03:38:00,
2013-06-26 22:53:00,88.2,69.0,29.86,SE,139,2.0,7.0,53,0.00,,,0.00,weatherlink.com 1.10,2013-06-27 03:53:00,
2013-06-26 23:08:00,87.7,69.0,29.87,ESE,118,3.0,6.0,54,0.00,,,0.00,weatherlink.com 1.10,2013-06-27 04:08:00,
2013-06-26 23:23:00,87.1,69.0,29.87,SE,135,1.0,5.0,55,0.00,,,0.00,weatherlink.com 1.10,2013-06-27 04:23:00,
2013-06-26 23:38:00,86.5,69.0,29.87,ESE,105,2.0,4.0,56,0.00,,,0.00,weatherlink.com 1.10,2013-06-27 04:38:00,
2013-06-26 23:53:00,86.2,69.0,29.87,SE,144,0.0,7.0,56,0.00,,,0.00,weatherlink.com 1.10,2013-06-27 04:53:00,